Hourly Data Report for May 29, 2021

MIRAMICHI RCS
NEW BRUNSWICK
Current Station Operator: ECCC - MSC

47°00'34.000" N
65°27'54.000" W
33.00 m
8100989
71744
ACQ

Download Data

Hourly Data (May 2021)
Hourly Data Report for May 29, 2021
TIME
LST
Temp Definition
°C
Dew Point Definition
°C
Rel Hum Definition
%
Precip. Amount Definition
mm

Wind Dir Definition
10's deg

Wind Spd Definition
km/h
Visibility Definition
km
Stn Press Definition
kPa
Hmdx Definition


Wind Chill Definition


Weather Definition


00:00 3.8 -2.2 65 LegendMM 3 2   101.50     LegendNANA
01:00 2.9 -2.5 67 LegendMM 30 7   101.58     LegendNANA
02:00 3.1 -2.9 65 LegendMM 29 8   101.62     LegendNANA
03:00 2.4 -2.4 70 LegendMM 26 7   101.66     LegendNANA
04:00 2.5 -2.9 68 LegendMM 28 7   101.66     LegendNANA
05:00 2.6 -3.0 66 LegendMM 28 6   101.71     LegendNANA
06:00 4.3 -3.3 58 LegendMM 31 8   101.77     LegendNANA
07:00 5.1 -2.6 57 LegendMM 32 7   101.82     LegendNANA
08:00 7.4 -2.7 49 LegendMM 26 3   101.87     LegendNANA
09:00 9.1 -4.6 38 LegendMM 35 5   101.91     LegendNANA
10:00 9.7 -4.2 37 LegendMM 32 8   101.90     LegendNANA
11:00 11.4 -3.6 35 LegendMM 24 6   101.93     LegendNANA
12:00 12.0 -4.4 31 LegendMM 18 8   101.89     LegendNANA
13:00 13.0 -4.6 29 LegendMM 9 6   101.88     LegendNANA
14:00 13.7 -3.1 31 LegendMM 12 12   101.88     LegendNANA
15:00 14.3 -1.6 33 LegendMM 11 13   101.87     LegendNANA
16:00 14.5 -1.0 34 LegendMM 8 15   101.87     LegendNANA
17:00 12.7 -0.8 39 LegendMM 6 20   101.95     LegendNANA
18:00 12.2 -3.4 33 LegendMM 6 20   102.02     LegendNANA
19:00 11.6 -3.5 35 LegendMM 9 17   102.06     LegendNANA
20:00 9.6 -1.3 47 LegendMM 8 12   102.10     LegendNANA
21:00 7.6 0.3 60 LegendMM 6 5   102.19     LegendNANA
22:00 6.2 0.9 69 LegendMM 8 11   102.24     LegendNANA
23:00 5.8 0.9 71 LegendMM 6 6   102.24     LegendNANA

Notes on Data Quality.

Legend

  • E = Estimated
  • M = Missing
  • NA = Not Available*
  • [empty] = Indicates an unobserved value
Date modified: